FW7730 Weather Reports


Display with metric or nautical units.
time (UTC)temp
F
wind
direction
speed
MPH
gust
MPH
rain 1hr
in
rain 24hr
in
rain mn
in
humidity
%
barometer
mb
20230130053544 -3 18 2.0 4.0 0.00 0.00 0.00 81 1020.3
20230130053059 -3 15 1.0 4.0 0.00 0.00 0.00 81 1020.1
20230130052543 -3 38 2.0 4.0 0.00 0.00 0.00 81 1020.3
20230130052044 -2 12 2.0 4.0 0.00 0.00 0.00 81 1020.3
20230130051600 -2 336 1.0 4.0 0.00 0.00 0.00 82 1020.4
20230130051043 -2 17 1.0 4.0 0.00 0.00 0.00 82 1020.3
20230130050543 -2 355 1.0 5.0 0.00 0.00 0.00 82 1020.4
20230130050100 -2 15 2.0 5.0 0.00 0.00 0.00 82 1020.5
20230130045542 -2 30 1.0 4.0 0.00 0.00 0.00 82 1020.4
20230130045043 -2 36 2.0 4.0 0.00 0.00 0.00 82 1020.4
20230130044555 -2 51 1.0 5.0 0.00 0.00 0.00 82 1020.6
20230130044043 -2 19 2.0 5.0 0.00 0.00 0.00 82 1020.5
20230130043543 -2 29 3.0 5.0 0.00 0.00 0.00 82 1020.4
20230130043051 -2 31 2.0 6.0 0.00 0.00 0.00 82 1020.4
20230130042543 -2 26 2.0 6.0 0.00 0.00 0.00 82 1020.6
20230130042044 -2 50 2.0 6.0 0.00 0.00 0.00 82 1020.5
20230130041608 -2 11 2.0 6.0 0.00 0.00 0.00 82 1020.4
20230130041043 -1 15 3.0 8.0 0.00 0.00 0.00 82 1020.4
20230130040545 -1 17 2.0 8.0 0.00 0.00 0.00 82 1020.4
20230130040057 -1 346 2.0 8.0 0.00 0.00 0.00 83 1020.4
20230130035544 -1 13 3.0 5.0 0.00 0.00 0.00 83 1020.4
20230130035045 -1 333 1.0 5.0 0.00 0.00 0.00 83 1020.4
20230130034601 -1 47 3.0 5.0 0.00 0.00 0.00 83 1020.3
20230130034044 -1 77 1.0 4.0 0.00 0.00 0.00 83 1020.4
20230130033544 -1 48 2.0 5.0 0.00 0.00 0.00 83 1020.4
20230130033105 -1 51 3.0 5.0 0.00 0.00 0.00 83 1020.2
20230130032544 -1 44 1.0 4.0 0.00 0.00 0.00 83 1020.2
20230130032040 -1 76 1.0 3.0 0.00 0.00 0.00 83 1020.2
20230130031602 -1 57 2.0 4.0 0.00 0.00 0.00 83 1020.2
20230130031048 -1 76 2.0 4.0 0.00 0.00 0.00 83 1020.1
20230130030542 -1 64 2.0 4.0 0.00 0.00 0.00 83 1020.1
20230130030103 -1 69 2.0 4.0 0.00 0.00 0.00 83 1020.1
20230130025543 -1 62 2.0 4.0 0.00 0.00 0.00 83 1020.1
20230130025043 0 63 2.0 4.0 0.00 0.00 0.00 83 1020.0
20230130024559 0 71 1.0 4.0 0.00 0.00 0.00 83 1020.0
20230130024044 0 56 1.0 3.0 0.00 0.00 0.00 83 1020.0
20230130023543 0 80 1.0 3.0 0.00 0.00 0.00 83 1020.1
20230130023054 0 0 1.0 4.0 0.00 0.00 0.00 83 1020.0
20230130022544 0 86 1.0 4.0 0.00 0.00 0.00 83 1020.1
20230130022042 0 0 0.0 3.0 0.00 0.00 0.00 83 1019.9
20230130021602 0 64 1.0 3.0 0.00 0.00 0.00 83 1019.7
20230130021043 0 74 1.0 4.0 0.00 0.00 0.00 83 1019.8
20230130020542 0 63 1.0 4.0 0.00 0.00 0.00 83 1019.8
20230130020100 0 56 1.0 4.0 0.00 0.00 0.00 83 1019.9
20230130015548 0 72 1.0 4.0 0.00 0.00 0.00 83 1019.7
20230130015043 0 71 1.0 4.0 0.00 0.00 0.00 83 1019.9
20230130014551 0 74 1.0 4.0 0.00 0.00 0.00 83 1019.8
20230130014049 0 68 2.0 4.0 0.00 0.00 0.00 83 1019.5
20230130013542 0 59 1.0 4.0 0.00 0.00 0.00 83 1019.7
20230130013102 0 89 1.0 3.0 0.00 0.00 0.00 83 1019.5
20230130012541 0 76 1.0 4.0 0.00 0.00 0.00 82 1019.5
20230130012048 0 57 1.0 4.0 0.00 0.00 0.00 83 1019.6
20230130011602 0 55 2.0 4.0 0.00 0.00 0.00 82 1019.4
20230130011041 0 62 2.0 4.0 0.00 0.00 0.00 82 1019.3
20230130010542 0 78 1.0 4.0 0.00 0.00 0.00 82 1019.4
20230130010054 0 71 1.0 4.0 0.00 0.00 0.00 82 1019.2
20230130005541 0 67 2.0 4.0 0.00 0.00 0.00 82 1019.1
20230130005042 0 59 1.0 4.0 0.00 0.00 0.00 82 1019.1
20230130004552 0 68 2.0 4.0 0.00 0.00 0.00 82 1018.8
20230130004041 0 65 2.0 5.0 0.00 0.00 0.00 82 1018.8
20230130003541 0 79 2.0 5.0 0.00 0.00 0.00 82 1018.8
20230130003103 0 69 2.0 5.0 0.00 0.00 0.00 82 1018.7
20230130002543 0 71 2.0 5.0 0.00 0.00 0.00 82 1018.8
20230130002042 0 74 2.0 5.0 0.00 0.00 0.00 82 1018.6
20230130001556 0 71 3.0 5.0 0.00 0.00 0.00 82 1018.6
20230130001041 0 73 3.0 6.0 0.00 0.00 0.00 82 1018.6
20230130000545 0 74 2.0 6.0 0.00 0.00 0.00 82 1018.4
20230130000048 0 65 2.0 5.0 0.00 0.00 0.00 82 1018.3
20230129235544 0 70 1.0 4.0 0.00 0.00 0.00 82 1018.3
20230129235045 0 82 2.0 4.0 0.00 0.00 0.00 82 1018.3
20230129234605 0 49 2.0 6.0 0.00 0.00 0.00 82 1018.4
20230129234044 0 60 2.0 6.0 0.00 0.00 0.00 82 1018.3
20230129233541 0 76 3.0 6.0 0.00 0.00 0.00 82 1018.2
20230129233104 0 61 3.0 6.0 0.00 0.00 0.00 82 1018.0
20230129232542 0 86 3.0 7.0 0.00 0.00 0.00 82 1018.2
20230129232041 0 77 3.0 7.0 0.00 0.00 0.00 82 1018.2
20230129231552 1 63 2.0 5.0 0.00 0.00 0.00 82 1018.0
20230129231041 1 80 2.0 5.0 0.00 0.00 0.00 82 1018.0
20230129230541 1 71 2.0 6.0 0.00 0.00 0.00 82 1017.8
20230129230053 1 50 3.0 6.0 0.00 0.00 0.00 81 1017.8
20230129225541 1 64 3.0 6.0 0.00 0.00 0.00 81 1017.6
20230129225041 1 63 3.0 6.0 0.00 0.00 0.00 81 1017.7
20230129224547 1 67 3.0 5.0 0.00 0.00 0.00 81 1017.6
20230129224041 1 71 2.0 5.0 0.00 0.00 0.00 82 1017.4
20230129223545 1 57 3.0 5.0 0.00 0.00 0.00 82 1017.3
20230129223057 1 63 3.0 5.0 0.00 0.00 0.00 82 1017.2
20230129222540 2 63 2.0 6.0 0.00 0.00 0.00 82 1017.1
20230129222044 2 80 2.0 6.0 0.00 0.00 0.00 82 1017.2
20230129221547 2 60 2.0 5.0 0.00 0.00 0.00 82 1017.1
20230129221043 2 65 3.0 5.0 0.00 0.00 0.00 82 1017.1
20230129220544 2 71 3.0 5.0 0.00 0.00 0.00 82 1017.1
20230129220053 2 51 2.0 5.0 0.00 0.00 0.00 83 1017.1
20230129215543 2 53 2.0 6.0 0.00 0.00 0.00 83 1017.1
20230129215041 2 76 3.0 6.0 0.00 0.00 0.00 83 1016.9
20230129214548 2 74 3.0 6.0 0.00 0.00 0.00 83 1016.9
20230129214040 2 78 2.0 6.0 0.00 0.00 0.00 83 1016.8
20230129213541 2 0 3.0 6.0 0.00 0.00 0.00 83 1016.8
20230129213101 2 65 2.0 5.0 0.00 0.00 0.00 83 1016.7
20230129212542 2 76 2.0 6.0 0.00 0.00 0.00 83 1016.6
20230129212041 2 84 3.0 6.0 0.00 0.00 0.00 83 1016.5
20230129211554 2 20 3.0 8.0 0.00 0.00 0.00 83 1016.4
20230129211044 2 67 2.0 8.0 0.00 0.00 0.00 83 1016.2
20230129210541 2 56 4.0 8.0 0.00 0.00 0.00 83 1016.2
20230129210055 2 86 3.0 7.0 0.00 0.00 0.00 83 1016.2
20230129205542 2 80 3.0 7.0 0.00 0.00 0.00 83 1016.0
20230129205044 2 88 4.0 6.0 0.00 0.00 0.00 83 1015.9
20230129204549 2 57 3.0 6.0 0.00 0.00 0.00 83 1016.0
20230129204040 2 0 3.0 6.0 0.00 0.00 0.00 83 1016.1
20230129203541 2 92 2.0 6.0 0.00 0.00 0.00 83 1016.0
20230129203046 2 56 3.0 8.0 0.00 0.00 0.00 83 1015.9
20230129202542 2 53 3.0 8.0 0.00 0.00 0.00 83 1016.0
20230129202041 2 80 3.0 7.0 0.00 0.00 0.00 83 1016.2
20230129201547 2 57 3.0 6.0 0.00 0.00 0.00 83 1016.2
20230129201041 2 54 3.0 6.0 0.00 0.00 0.00 83 1016.1
20230129200540 2 81 3.0 6.0 0.00 0.00 0.00 83 1016.4
20230129200046 3 83 2.0 5.0 0.00 0.00 0.00 83 1016.4
20230129195540 2 76 2.0 5.0 0.00 0.00 0.00 84 1016.2
20230129195040 2 34 2.0 5.0 0.00 0.00 0.00 84 1016.4
20230129194548 2 62 2.0 5.0 0.00 0.00 0.00 84 1016.4
20230129194040 2 39 3.0 6.0 0.00 0.00 0.00 84 1016.3
20230129193541 2 39 1.0 6.0 0.00 0.00 0.00 84 1016.3
20230129193048 2 61 3.0 6.0 0.00 0.00 0.00 84 1016.3
20230129192541 2 355 2.0 5.0 0.00 0.00 0.00 84 1016.4
20230129192043 2 65 2.0 6.0 0.00 0.00 0.00 84 1016.4
20230129191551 3 339 2.0 6.0 0.00 0.00 0.00 84 1016.4
20230129191041 2 43 2.0 6.0 0.00 0.00 0.00 84 1016.4
20230129190541 2 55 2.0 4.0 0.00 0.00 0.00 84 1016.5
20230129190050 2 85 1.0 5.0 0.00 0.00 0.00 84 1016.4
20230129185540 2 59 2.0 5.0 0.00 0.00 0.00 84 1016.6
20230129185041 2 76 1.0 4.0 0.00 0.00 0.00 84 1016.5
20230129184553 2 352 2.0 4.0 0.00 0.00 0.00 84 1016.6
20230129184040 2 355 2.0 3.0 0.00 0.00 0.00 84 1016.7
20230129183540 2 0 1.0 3.0 0.00 0.00 0.00 84 1016.7
20230129183056 2 35 1.0 3.0 0.00 0.00 0.00 84 1016.8
20230129182540 2 0 0.0 3.0 0.00 0.00 0.00 84 1016.9
20230129182041 2 355 1.0 3.0 0.00 0.00 0.00 83 1016.9
20230129181548 3 33 1.0 3.0 0.00 0.00 0.00 84 1017.0
20230129181043 3 0 1.0 4.0 0.00 0.00 0.00 84 1017.1
20230129180540 3 75 2.0 5.0 0.00 0.00 0.00 84 1017.1
20230129180050 3 22 2.0 5.0 0.00 0.00 0.00 84 1017.1
20230129175541 3 47 1.0 4.0 0.00 0.00 0.00 84 1017.2
20230129175041 3 70 1.0 4.0 0.00 0.00 0.00 84 1017.2
20230129174603 3 0 1.0 4.0 0.00 0.00 0.00 84 1017.3
20230129174041 3 42 2.0 3.0 0.00 0.00 0.00 84 1017.3
20230129173541 3 74 1.0 4.0 0.00 0.00 0.00 85 1017.3
20230129173051 3 52 1.0 4.0 0.00 0.00 0.00 85 1017.2
20230129172543 3 46 1.0 4.0 0.00 0.00 0.00 85 1017.2
20230129172043 3 0 1.0 3.0 0.00 0.00 0.00 84 1017.3
20230129171559 3 37 0.0 4.0 0.00 0.00 0.00 85 1017.3
20230129171040 3 45 2.0 4.0 0.00 0.00 0.00 85 1017.2
20230129170541 3 34 1.0 4.0 0.00 0.00 0.00 85 1017.3
20230129170059 3 67 1.0 4.0 0.00 0.00 0.00 85 1017.2
20230129165544 2 61 1.0 4.0 0.00 0.00 0.00 85 1017.3
20230129165044 2 52 1.0 4.0 0.00 0.00 0.00 85 1017.2
20230129164603 2 51 1.0 4.0 0.00 0.00 0.00 85 1017.1
20230129164043 2 5 1.0 3.0 0.00 0.00 0.00 85 1017.0
20230129163540 2 0 1.0 3.0 0.00 0.00 0.00 85 1017.1
20230129163104 2 69 0.0 3.0 0.00 0.00 0.00 85 1017.1
20230129162541 2 60 1.0 3.0 0.00 0.00 0.00 85 1017.1
20230129162041 2 59 1.0 3.0 0.00 0.00 0.00 85 1017.1
20230129161550 1 34 1.0 3.0 0.00 0.00 0.00 85 1016.9
20230129161040 1 5 0.0 4.0 0.00 0.00 0.00 85 1017.1
20230129160540 1 5 1.0 4.0 0.00 0.00 0.00 85 1017.0
20230129160055 1 43 0.0 2.0 0.00 0.00 0.00 85 1016.9
20230129155540 1 59 0.0 2.0 0.00 0.00 0.00 85 1016.9
20230129155041 1 0 1.0 3.0 0.00 0.00 0.00 85 1016.9
20230129154550 1 49 0.0 4.0 0.00 0.00 0.00 85 1016.8
20230129154042 1 78 0.0 4.0 0.00 0.00 0.00 85 1016.7
20230129153542 1 52 1.0 4.0 0.00 0.00 0.00 84 1016.7
20230129153104 1 27 1.0 4.0 0.00 0.00 0.00 85 1016.8
20230129152544 1 53 1.0 3.0 0.00 0.00 0.00 84 1016.8
20230129152039 1 28 0.0 3.0 0.00 0.00 0.00 85 1016.7
20230129151548 1 0 1.0 3.0 0.00 0.00 0.00 85 1016.7
20230129151040 1 57 1.0 3.0 0.00 0.00 0.00 85 1016.7
20230129150543 1 49 1.0 3.0 0.00 0.00 0.00 85 1016.7
20230129150058 1 36 1.0 3.0 0.00 0.00 0.00 85 1016.5
20230129145542 1 0 1.0 4.0 0.00 0.00 0.00 85 1016.6
20230129145040 1 24 1.0 4.0 0.00 0.00 0.00 85 1016.4
20230129144555 1 58 1.0 4.0 0.00 0.00 0.00 85 1016.4
20230129144044 1 46 1.0 3.0 0.00 0.00 0.00 85 1016.4
20230129143543 1 22 1.0 5.0 0.00 0.00 0.00 85 1016.3
20230129143104 1 29 2.0 5.0 0.00 0.00 0.00 85 1016.4
20230129142547 1 63 2.0 5.0 0.00 0.00 0.00 85 1016.3
20230129142044 1 61 1.0 4.0 0.00 0.00 0.00 85 1016.3
20230129141603 1 47 1.0 4.0 0.00 0.00 0.00 85 1016.2
20230129141048 2 22 1.0 4.0 0.00 0.00 0.00 85 1016.2
20230129140544 2 61 1.0 5.0 0.00 0.00 0.00 85 1016.2
20230129140102 2 347 2.0 5.0 0.00 0.00 0.00 85 1016.2
20230129135544 2 38 2.0 4.0 0.00 0.00 0.00 85 1016.1
20230129135044 2 34 2.0 4.0 0.00 0.00 0.00 85 1016.0
20230129134555 2 0 1.0 4.0 0.00 0.00 0.00 85 1016.0
20230129134043 2 5 1.0 4.0 0.00 0.00 0.00 85 1015.9
20230129133544 2 0 1.0 4.0 0.00 0.00 0.00 85 1015.9
20230129133053 3 28 2.0 4.0 0.00 0.00 0.00 85 1015.9
20230129132545 3 44 2.0 4.0 0.00 0.00 0.00 85 1015.6
20230129132044 3 46 1.0 4.0 0.00 0.00 0.00 85 1015.6
20230129131557 3 67 0.0 3.0 0.00 0.00 0.00 85 1015.6
20230129131045 3 61 1.0 3.0 0.00 0.00 0.00 85 1015.4
20230129130544 3 51 1.0 3.0 0.00 0.00 0.00 85 1015.5
20230129130054 3 35 0.0 3.0 0.00 0.00 0.00 85 1015.3
20230129125545 3 63 1.0 4.0 0.00 0.00 0.00 85 1015.4
20230129125045 3 55 1.0 4.0 0.00 0.00 0.00 85 1015.3
20230129124610 3 83 2.0 4.0 0.00 0.00 0.00 85 1015.4
20230129124045 3 92 2.0 4.0 0.00 0.00 0.00 85 1015.4
20230129123544 4 48 1.0 3.0 0.00 0.00 0.00 86 1015.5
20230129123113 4 59 1.0 3.0 0.00 0.00 0.00 86 1015.5
20230129122544 4 0 0.0 4.0 0.00 0.00 0.00 86 1015.5
20230129122044 4 32 2.0 4.0 0.00 0.00 0.00 86 1015.7
20230129121554 4 63 1.0 4.0 0.00 0.00 0.00 86 1015.7
20230129121043 4 26 2.0 4.0 0.00 0.00 0.00 86 1015.6
20230129120543 4 41 0.0 4.0 0.00 0.00 0.00 86 1015.7
20230129120058 4 0 1.0 4.0 0.00 0.00 0.00 86 1015.7
20230129115547 4 26 1.0 4.0 0.00 0.00 0.00 86 1015.7
20230129115044 4 39 2.0 4.0 0.00 0.00 0.00 86 1015.7
20230129114556 4 49 1.0 4.0 0.00 0.00 0.00 86 1015.7
20230129114045 4 0 1.0 4.0 0.00 0.00 0.00 86 1015.8
20230129113544 4 47 1.0 4.0 0.00 0.00 0.00 86 1015.9
20230129113052 5 42 1.0 3.0 0.00 0.00 0.00 86 1015.9
20230129112541 5 0 1.0 3.0 0.00 0.00 0.00 86 1015.7
20230129112040 5 47 1.0 4.0 0.00 0.00 0.00 86 1015.7
20230129111558 5 78 1.0 4.0 0.00 0.00 0.00 86 1015.5
20230129111043 5 76 1.0 4.0 0.00 0.00 0.00 86 1015.5
20230129110540 5 85 2.0 4.0 0.00 0.00 0.00 86 1015.4
20230129110050 5 67 1.0 4.0 0.00 0.00 0.00 86 1015.3
20230129105540 5 75 1.0 4.0 0.00 0.00 0.00 86 1015.4
20230129105042 5 67 1.0 4.0 0.00 0.00 0.00 86 1015.4
20230129104557 5 64 1.0 4.0 0.00 0.00 0.00 86 1015.4
20230129104042 5 57 1.0 4.0 0.00 0.00 0.00 86 1015.5
20230129103540 5 61 0.0 4.0 0.00 0.00 0.00 86 1015.7
20230129103053 5 85 1.0 4.0 0.00 0.00 0.00 86 1015.6
20230129102540 6 36 1.0 3.0 0.00 0.00 0.00 86 1015.6
20230129102040 6 51 1.0 3.0 0.00 0.00 0.00 86 1015.7
20230129101545 6 52 1.0 3.0 0.00 0.00 0.00 86 1015.5
20230129101041 6 74 1.0 4.0 0.00 0.00 0.00 86 1015.5
20230129100540 6 38 1.0 4.0 0.00 0.00 0.00 86 1015.5
20230129100051 6 26 1.0 5.0 0.00 0.00 0.00 86 1015.7
20230129095543 6 56 1.0 5.0 0.00 0.00 0.00 86 1015.8
20230129095039 6 57 1.0 5.0 0.00 0.00 0.00 86 1015.7
20230129094543 6 36 0.0 5.0 0.00 0.00 0.00 86 1016.0
20230129094046 6 55 2.0 5.0 0.00 0.00 0.00 86 1016.1
20230129093541 6 44 3.0 5.0 0.00 0.00 0.00 86 1016.0
20230129093053 7 57 2.0 5.0 0.00 0.00 0.00 86 1016.1
20230129092541 7 70 2.0 5.0 0.00 0.00 0.00 87 1015.9
20230129092042 7 67 2.0 5.0 0.00 0.00 0.00 86 1016.0
20230129091547 7 81 1.0 4.0 0.00 0.00 0.00 86 1016.1
20230129091040 7 80 1.0 4.0 0.00 0.00 0.00 86 1016.2
20230129090542 7 68 2.0 4.0 0.00 0.00 0.00 87 1016.2
20230129090055 7 74 1.0 4.0 0.00 0.00 0.00 87 1016.5
20230129085542 7 59 1.0 4.0 0.00 0.00 0.00 87 1016.4
20230129085042 7 68 1.0 4.0 0.00 0.00 0.00 87 1016.5
20230129084548 7 70 1.0 4.0 0.00 0.00 0.00 87 1016.6
20230129084042 7 0 1.0 4.0 0.00 0.00 0.00 87 1016.6
20230129083542 7 62 1.0 4.0 0.00 0.00 0.00 87 1016.7
20230129083046 7 35 1.0 4.0 0.00 0.00 0.00 86 1016.6
20230129082542 7 70 2.0 4.0 0.00 0.00 0.00 86 1016.5
20230129082042 7 36 1.0 5.0 0.00 0.00 0.00 86 1016.6
20230129081551 7 55 1.0 5.0 0.00 0.00 0.00 86 1016.6
20230129081042 7 75 1.0 5.0 0.00 0.00 0.00 86 1016.6
20230129080542 7 67 2.0 5.0 0.00 0.00 0.00 86 1016.6
20230129080108 7 65 1.0 4.0 0.00 0.00 0.00 86 1016.6
20230129075541 7 64 3.0 4.0 0.00 0.00 0.00 86 1016.7
20230129075040 7 57 3.0 4.0 0.00 0.00 0.00 86 1016.6
20230129074558 7 69 2.0 5.0 0.00 0.00 0.00 86 1016.6
20230129074040 7 63 2.0 5.0 0.00 0.00 0.00 86 1016.8
20230129073543 8 63 2.0 4.0 0.00 0.00 0.00 86 1016.6
20230129073054 8 66 2.0 4.0 0.00 0.00 0.00 86 1016.9
20230129072542 8 68 2.0 4.0 0.00 0.00 0.00 86 1016.9
20230129072041 8 71 2.0 4.0 0.00 0.00 0.00 86 1016.8
20230129071620 8 69 2.0 5.0 0.00 0.00 0.00 86 1016.9
20230129071044 8 74 2.0 5.0 0.00 0.00 0.00 86 1017.0
20230129070542 8 59 3.0 5.0 0.00 0.00 0.00 86 1017.0
20230129070046 8 71 2.0 4.0 0.00 0.00 0.00 86 1017.0
20230129065541 8 86 2.0 4.0 0.00 0.00 0.00 86 1017.1
20230129065041 8 80 1.0 4.0 0.00 0.00 0.00 86 1017.1
20230129064551 8 82 1.0 4.0 0.00 0.00 0.00 86 1017.2
20230129064042 8 75 1.0 3.0 0.00 0.00 0.00 86 1017.1
20230129063541 8 74 1.0 3.0 0.00 0.00 0.00 86 1017.2
20230129063048 8 68 1.0 4.0 0.00 0.00 0.00 86 1017.3
20230129062540 9 61 1.0 4.0 0.00 0.00 0.00 86 1017.3
20230129062041 9 78 1.0 5.0 0.00 0.00 0.00 86 1017.5
20230129061552 9 72 1.0 5.0 0.00 0.00 0.00 87 1017.5
20230129061044 9 44 3.0 5.0 0.00 0.00 0.00 87 1017.6
20230129060545 9 0 1.0 5.0 0.00 0.00 0.00 87 1017.6
20230129060052 9 44 2.0 5.0 0.00 0.00 0.00 86 1017.7
20230129055541 9 51 2.0 4.0 0.00 0.00 0.00 86 1017.9
20230129055041 9 48 2.0 6.0 0.00 0.00 0.00 86 1017.9
20230129054547 9 360 3.0 10.0 0.00 0.00 0.00 86 1018.0
20230129054042 10 48 3.0 10.0 0.00 0.00 0.00 86 1017.9